Stations météo

Publicité
Elphin, Grande-Bretagne (99153): Température de l'air & dewpoint: 20.09.2017 12:00:00 - 26.09.2017 12:00:00 (BST)Elphin, Grande-Bretagne (99153): Quantités de précipitations: 20.09.2017 12:00:00 - 26.09.2017 12:00:00 (BST)
Date & Time tt [°C] td [°C] rr [mm]
26.09.2017 12:00:00 - - -
26.09.2017 11:00:00 15,6 12,8 0,0
26.09.2017 10:00:00 14,3 11,8 0,0
26.09.2017 09:00:00 11,9 10,5 0,0
26.09.2017 08:00:00 9,7 8,8 0,0
26.09.2017 07:00:00 9,5 8,7 0,0
26.09.2017 06:00:00 9,7 8,8 0,0
26.09.2017 05:00:00 10,0 9,0 0,0
26.09.2017 04:00:00 9,6 9,2 0,0
26.09.2017 03:00:00 9,7 9,4 0,0
26.09.2017 02:00:00 9,9 9,7 0,2
26.09.2017 01:00:00 10,7 10,0 0,0
26.09.2017 00:00:00 10,9 10,3 0,0
25.09.2017 23:00:00 10,5 9,7 0,0
25.09.2017 22:00:00 11,5 10,8 0,0
25.09.2017 21:00:00 11,9 11,1 0,0
25.09.2017 20:00:00 12,1 11,2 0,0
25.09.2017 19:00:00 14,0 12,6 0,0
25.09.2017 18:00:00 14,7 12,9 0,0
25.09.2017 17:00:00 14,9 12,8 0,0
25.09.2017 16:00:00 15,7 13,3 0,0
25.09.2017 15:00:00 15,5 12,9 0,0
25.09.2017 14:00:00 14,5 13,3 0,0
25.09.2017 13:00:00 13,9 13,3 0,2
25.09.2017 12:00:00 13,6 13,2 0,0
25.09.2017 11:00:00 12,9 12,7 0,0
25.09.2017 10:00:00 12,2 12,0 0,0
25.09.2017 09:00:00 12,1 11,9 0,0
25.09.2017 08:00:00 11,9 11,7 0,0
25.09.2017 07:00:00 11,9 11,7 0,0
25.09.2017 06:00:00 11,6 11,5 0,2
25.09.2017 05:00:00 11,7 11,5 0,0
25.09.2017 04:00:00 11,7 11,5 0,2
25.09.2017 03:00:00 11,1 10,8 0,2
25.09.2017 02:00:00 10,8 10,6 0,0
25.09.2017 01:00:00 11,0 10,7 0,0
25.09.2017 00:00:00 11,8 11,6 0,0
24.09.2017 23:00:00 11,8 11,6 0,0
24.09.2017 22:00:00 12,1 11,9 1,0
24.09.2017 21:00:00 12,0 11,6 0,8
24.09.2017 20:00:00 12,4 11,8 0,2
24.09.2017 19:00:00 12,8 12,1 0,0
24.09.2017 18:00:00 13,1 12,3 0,4
24.09.2017 17:00:00 14,3 11,8 0,0
24.09.2017 16:00:00 13,6 11,8 0,0
24.09.2017 15:00:00 13,6 11,8 0,0
24.09.2017 14:00:00 13,5 11,5 0,0
24.09.2017 13:00:00 13,2 12,0 0,0
24.09.2017 12:00:00 13,4 11,7 0,0
24.09.2017 11:00:00 14,8 11,0 0,0
24.09.2017 10:00:00 14,0 10,6 0,0
24.09.2017 09:00:00 13,3 10,4 0,0
24.09.2017 08:00:00 13,4 10,1 0,0
24.09.2017 07:00:00 14,1 9,7 0,0
24.09.2017 06:00:00 12,8 9,4 0,0
24.09.2017 05:00:00 13,8 9,5 0,0
24.09.2017 04:00:00 13,7 8,7 0,0
24.09.2017 03:00:00 14,0 7,7 0,0
24.09.2017 02:00:00 14,4 7,0 0,0
24.09.2017 01:00:00 13,8 7,0 0,0
24.09.2017 00:00:00 14,5 7,2 0,0
23.09.2017 23:00:00 15,0 9,2 0,0
23.09.2017 22:00:00 16,3 10,0 0,0
23.09.2017 21:00:00 16,0 11,8 0,0
23.09.2017 20:00:00 15,7 11,8 0,0
23.09.2017 19:00:00 16,2 11,8 0,0
23.09.2017 18:00:00 16,3 11,8 0,0
23.09.2017 17:00:00 16,8 11,8 0,0
23.09.2017 16:00:00 17,2 11,7 0,0
23.09.2017 15:00:00 17,0 11,3 0,0
23.09.2017 14:00:00 17,6 11,3 0,0
23.09.2017 13:00:00 17,7 11,1 0,0
23.09.2017 12:00:00 16,3 9,8 0,0
23.09.2017 11:00:00 14,1 9,3 0,0
23.09.2017 10:00:00 12,7 9,0 0,0
23.09.2017 09:00:00 10,4 8,7 0,0
23.09.2017 08:00:00 9,0 7,7 0,0
23.09.2017 07:00:00 8,2 7,5 0,0
23.09.2017 06:00:00 8,3 7,7 0,2
23.09.2017 05:00:00 8,6 7,8 0,0
23.09.2017 04:00:00 8,1 7,2 0,0
23.09.2017 03:00:00 8,7 7,6 0,0
23.09.2017 02:00:00 8,6 7,3 0,0
23.09.2017 01:00:00 8,6 7,5 0,0
23.09.2017 00:00:00 8,7 7,4 0,0
22.09.2017 23:00:00 9,0 7,7 0,0
22.09.2017 22:00:00 8,7 7,7 0,0
22.09.2017 21:00:00 9,1 7,8 0,0
22.09.2017 20:00:00 10,6 9,3 0,0
22.09.2017 19:00:00 10,7 9,8 0,2
22.09.2017 18:00:00 11,2 10,0 0,2
22.09.2017 17:00:00 11,6 9,4 0,0
22.09.2017 16:00:00 11,7 9,6 0,2
22.09.2017 15:00:00 10,3 9,3 0,4
22.09.2017 14:00:00 9,5 8,2 0,0
22.09.2017 13:00:00 9,6 8,2 0,4
22.09.2017 12:00:00 9,4 7,2 0,0
22.09.2017 11:00:00 8,8 6,8 0,0
22.09.2017 10:00:00 8,2 6,6 0,0
22.09.2017 09:00:00 6,6 5,2 0,0
22.09.2017 08:00:00 6,2 4,6 0,0
22.09.2017 07:00:00 5,8 4,2 0,0
22.09.2017 06:00:00 5,5 4,0 0,0
22.09.2017 05:00:00 5,3 4,2 0,0
22.09.2017 04:00:00 3,6 3,6 0,2
22.09.2017 03:00:00 3,3 3,3 0,0
22.09.2017 02:00:00 2,3 2,3 0,0
22.09.2017 01:00:00 2,9 2,9 0,0
22.09.2017 00:00:00 1,9 1,9 0,0
21.09.2017 23:00:00 2,0 2,0 0,0
21.09.2017 22:00:00 2,6 2,3 0,0
21.09.2017 21:00:00 4,5 4,0 0,0
21.09.2017 20:00:00 6,1 4,4 0,0
21.09.2017 19:00:00 8,8 5,8 0,0
21.09.2017 18:00:00 12,2 7,9 0,0
21.09.2017 17:00:00 12,1 7,5 0,0
21.09.2017 16:00:00 12,3 8,2 0,0
21.09.2017 15:00:00 10,9 9,1 0,0
21.09.2017 14:00:00 10,2 8,6 0,2
21.09.2017 13:00:00 10,3 9,2 0,0
21.09.2017 12:00:00 10,1 9,2 0,2
21.09.2017 11:00:00 9,7 9,4 0,4
21.09.2017 10:00:00 9,1 9,1 0,2
21.09.2017 09:00:00 8,4 8,4 0,4
21.09.2017 08:00:00 8,0 7,9 0,0
21.09.2017 07:00:00 7,5 7,4 0,0
21.09.2017 06:00:00 7,8 7,7 0,0
21.09.2017 05:00:00 7,8 7,6 0,0
21.09.2017 04:00:00 8,3 8,1 0,0
21.09.2017 03:00:00 8,5 8,2 0,4
21.09.2017 02:00:00 8,7 8,3 0,2
21.09.2017 01:00:00 8,8 8,3 0,2
21.09.2017 00:00:00 8,7 8,1 0,2
20.09.2017 23:00:00 8,9 8,1 0,8
20.09.2017 22:00:00 9,5 8,5 0,8
20.09.2017 21:00:00 10,0 9,4 1,0
20.09.2017 20:00:00 10,3 9,5 0,8
20.09.2017 19:00:00 10,5 9,8 0,2
20.09.2017 18:00:00 10,5 10,0 0,2
20.09.2017 17:00:00 11,1 10,5 0,0
20.09.2017 16:00:00 12,0 10,7 0,0
20.09.2017 15:00:00 11,5 11,2 0,2
20.09.2017 14:00:00 11,1 10,9 0,0
20.09.2017 13:00:00 12,0 11,8 0,4
20.09.2017 12:00:00 12,6 12,0 0,2

tt = Température de l'air
td = dewpoint
rr = Quantités de précipitations

stations d'obs. à proximité